W5HRH Weather Reports


Display with metric or nautical units.
time (UTC)temp
F
wind
direction
speed
MPH
gust
MPH
rain 1hr
in
rain 24hr
in
rain mn
in
humidity
%
barometer
mb
20260504050515 65 166 0.0 0.0 0.00 0.00 0.00 68 1020.1
20260504050013 65 166 0.0 1.0 0.00 0.00 0.00 68 1020.0
20260504045512 65 166 0.0 1.0 0.00 0.00 0.00 68 1020.1
20260504045012 65 190 0.0 0.0 0.00 0.00 0.00 68 1020.1
20260504044515 65 150 0.0 0.0 0.00 0.00 0.00 68 1020.2
20260504044014 65 150 0.0 0.0 0.00 0.00 0.00 67 1020.3
20260504043512 65 150 0.0 0.0 0.00 0.00 0.00 67 1020.2
20260504043012 65 150 0.0 0.0 0.00 0.00 0.00 66 1020.3
20260504042512 66 148 0.0 0.0 0.00 0.00 0.00 66 1020.2
20260504042011 66 147 0.0 0.0 0.00 0.00 0.00 65 1020.2
20260504041511 66 171 0.0 0.0 0.00 0.00 0.00 65 1020.3
20260504041011 66 171 0.0 0.0 0.00 0.00 0.00 64 1020.4
20260504040511 67 171 0.0 0.0 0.00 0.00 0.00 64 1020.3
20260504040011 67 171 0.0 0.0 0.00 0.00 0.00 64 1020.2
20260504035512 67 171 0.0 2.0 0.00 0.00 0.00 63 1020.3
20260504035015 67 163 0.0 5.0 0.00 0.00 0.00 63 1020.1
20260504034511 68 169 0.0 5.0 0.00 0.00 0.00 62 1020.4
20260504034017 68 191 0.0 4.0 0.00 0.00 0.00 62 1020.4
20260504033509 68 169 0.0 4.0 0.00 0.00 0.00 62 1020.3
20260504033009 68 165 1.0 4.0 0.00 0.00 0.00 62 1020.4
20260504032510 68 175 0.0 4.0 0.00 0.00 0.00 61 1020.3
20260504032009 68 160 0.0 4.0 0.00 0.00 0.00 61 1020.4
20260504031510 68 177 0.0 3.0 0.00 0.00 0.00 61 1020.3
20260504031012 68 186 0.0 3.0 0.00 0.00 0.00 60 1020.3
20260504030509 69 163 0.0 0.0 0.00 0.00 0.00 60 1020.3
20260504030009 69 163 0.0 0.0 0.00 0.00 0.00 60 1020.0
20260504025509 69 161 0.0 4.0 0.00 0.00 0.00 59 1019.9
20260504025009 69 153 0.0 4.0 0.00 0.00 0.00 59 1020.0
20260504024508 69 166 0.0 3.0 0.00 0.00 0.00 59 1020.1
20260504024008 70 171 0.0 2.0 0.00 0.00 0.00 58 1020.0
20260504023508 70 132 0.0 6.0 0.00 0.00 0.00 58 1020.1
20260504023008 70 169 0.0 6.0 0.00 0.00 0.00 57 1020.1
20260504022513 70 174 1.0 7.0 0.00 0.00 0.00 57 1020.2
20260504022008 70 168 1.0 7.0 0.00 0.00 0.00 56 1020.1
20260504021509 70 171 1.0 7.0 0.00 0.00 0.00 56 1020.0
20260504021009 71 159 0.0 8.0 0.00 0.00 0.00 56 1020.0
20260504020507 71 183 2.0 11.0 0.00 0.00 0.00 56 1019.9
20260504020007 71 207 2.0 11.0 0.00 0.00 0.00 55 1020.0
20260504015508 71 198 2.0 10.0 0.00 0.00 0.00 54 1020.1
20260504015016 71 159 0.0 9.0 0.00 0.00 0.00 54 1020.0
20260504014507 71 163 4.0 10.0 0.00 0.00 0.00 54 1020.0
20260504014006 72 217 1.0 7.0 0.00 0.00 0.00 54 1019.9
20260504013507 72 138 1.0 6.0 0.00 0.00 0.00 53 1019.8
20260504013011 72 138 1.0 6.0 0.00 0.00 0.00 53 1019.8
20260504012508 72 127 1.0 9.0 0.00 0.00 0.00 52 1019.7
20260504012008 72 167 1.0 10.0 0.00 0.00 0.00 52 1019.6
20260504011505 72 209 1.0 7.0 0.00 0.00 0.00 51 1019.6
20260504011004 73 155 1.0 8.0 0.00 0.00 0.00 51 1019.6
20260504010510 73 180 2.0 8.0 0.00 0.00 0.00 51 1019.7
20260504010004 73 165 2.0 8.0 0.00 0.00 0.00 51 1019.6
20260504005505 73 187 0.0 6.0 0.00 0.00 0.00 50 1019.4
20260504005004 74 153 1.0 5.0 0.00 0.00 0.00 50 1019.5
20260504004506 74 168 1.0 5.0 0.00 0.00 0.00 50 1019.6
20260504004002 74 162 0.0 3.0 0.00 0.00 0.00 49 1019.6
20260504003502 74 159 0.0 7.0 0.00 0.00 0.00 49 1019.6
20260504003003 74 165 0.0 7.0 0.00 0.00 0.00 49 1019.6
20260504002502 75 173 0.0 5.0 0.00 0.00 0.00 48 1019.5
20260504002001 75 163 1.0 9.0 0.00 0.00 0.00 48 1019.6
20260504001502 75 155 1.0 9.0 0.00 0.00 0.00 47 1019.6
20260504001001 75 120 1.0 8.0 0.00 0.00 0.00 48 1019.4
20260504000604 75 189 2.0 8.0 0.00 0.00 0.00 48 1019.5
20260503235603 76 159 0.0 8.0 0.00 0.00 0.00 48 1019.6
20260503235100 76 171 2.0 9.0 0.00 0.00 0.00 47 1019.7
20260503234600 76 161 2.0 9.0 0.00 0.00 0.00 47 1019.7
20260503234102 77 175 1.0 6.0 0.00 0.00 0.00 46 1019.6
20260503233559 77 179 2.0 6.0 0.00 0.00 0.00 45 1019.7
20260503233103 77 170 0.0 5.0 0.00 0.00 0.00 46 1019.7
20260503232558 77 163 0.0 8.0 0.00 0.00 0.00 45 1019.7
20260503232058 77 178 0.0 8.0 0.00 0.00 0.00 45 1019.7
20260503231558 78 192 0.0 7.0 0.00 0.00 0.00 43 1019.6
20260503231058 78 154 2.0 7.0 0.00 0.00 0.00 41 1019.6
20260503230558 78 164 1.0 5.0 0.00 0.00 0.00 39 1019.7
20260503230058 78 98 1.0 5.0 0.00 0.00 0.00 38 1019.6
20260503225601 78 145 0.0 0.0 0.00 0.00 0.00 40 1019.7
20260503225056 78 180 0.0 7.0 0.00 0.00 0.00 39 1019.9
20260503224556 78 174 0.0 7.0 0.00 0.00 0.00 40 1019.9
20260503224058 78 114 0.0 7.0 0.00 0.00 0.00 40 1020.0
20260503223556 78 101 0.0 7.0 0.00 0.00 0.00 40 1019.9
20260503223055 78 168 0.0 3.0 0.00 0.00 0.00 39 1020.0
20260503222553 78 187 0.0 5.0 0.00 0.00 0.00 39 1020.0
20260503222054 78 182 0.0 7.0 0.00 0.00 0.00 38 1020.3
20260503221559 78 184 0.0 7.0 0.00 0.00 0.00 40 1020.4
20260503221051 79 194 0.0 8.0 0.00 0.00 0.00 38 1020.4
20260503220552 79 169 1.0 7.0 0.00 0.00 0.00 39 1020.3
20260503215552 79 89 0.0 4.0 0.00 0.00 0.00 38 1020.3
20260503215051 79 151 0.0 4.0 0.00 0.00 0.00 39 1020.2
20260503214551 79 88 0.0 5.0 0.00 0.00 0.00 40 1020.2
20260503214054 79 195 1.0 5.0 0.00 0.00 0.00 39 1020.2
20260503213552 79 103 0.0 0.0 0.00 0.00 0.00 37 1020.5
20260503213049 79 129 0.0 2.0 0.00 0.00 0.00 38 1020.7
20260503212551 80 154 0.0 4.0 0.00 0.00 0.00 37 1020.7
20260503212048 80 116 0.0 4.0 0.00 0.00 0.00 37 1020.7
20260503211548 80 148 0.0 6.0 0.00 0.00 0.00 37 1020.8
20260503211047 80 169 0.0 6.0 0.00 0.00 0.00 39 1020.8
20260503210547 80 163 0.0 6.0 0.00 0.00 0.00 39 1020.7
20260503210054 80 162 0.0 0.0 0.00 0.00 0.00 37 1020.7
20260503205547 80 161 0.0 0.0 0.00 0.00 0.00 38 1020.8
20260503205046 80 167 0.0 10.0 0.00 0.00 0.00 39 1021.1
20260503204558 80 113 0.0 10.0 0.00 0.00 0.00 38 1021.3
20260503204046 80 162 0.0 4.0 0.00 0.00 0.00 39 1021.1
20260503203544 80 180 0.0 6.0 0.00 0.00 0.00 36 1021.4
20260503203043 80 125 0.0 6.0 0.00 0.00 0.00 37 1021.5
20260503202543 81 186 0.0 5.0 0.00 0.00 0.00 40 1021.5
20260503202043 80 178 0.0 5.0 0.00 0.00 0.00 37 1021.5
20260503201542 80 88 0.0 5.0 0.00 0.00 0.00 37 1021.6
20260503201041 80 128 0.0 4.0 0.00 0.00 0.00 36 1021.6
20260503200540 80 82 0.0 4.0 0.00 0.00 0.00 37 1021.7
20260503200045 80 295 0.0 3.0 0.00 0.00 0.00 37 1021.8
20260503195539 80 179 0.0 5.0 0.00 0.00 0.00 38 1021.9
20260503195039 80 139 0.0 5.0 0.00 0.00 0.00 37 1022.0
20260503194538 80 167 0.0 5.0 0.00 0.00 0.00 37 1022.1
20260503194037 80 123 0.0 7.0 0.00 0.00 0.00 38 1022.2
20260503193536 80 40 1.0 8.0 0.00 0.00 0.00 39 1022.2
20260503193035 80 80 2.0 8.0 0.00 0.00 0.00 38 1022.3
20260503192534 79 186 0.0 7.0 0.00 0.00 0.00 39 1022.5
20260503192033 80 78 0.0 7.0 0.00 0.00 0.00 37 1022.5
20260503191532 80 186 0.0 8.0 0.00 0.00 0.00 39 1022.7
20260503191032 80 98 0.0 8.0 0.00 0.00 0.00 38 1022.8
20260503190531 80 141 0.0 4.0 0.00 0.00 0.00 38 1022.8
20260503190042 80 115 0.0 5.0 0.00 0.00 0.00 38 1022.8
20260503185530 80 146 0.0 5.0 0.00 0.00 0.00 41 1022.9
20260503185029 80 84 1.0 4.0 0.00 0.00 0.00 39 1022.8
20260503184529 79 81 0.0 4.0 0.00 0.00 0.00 38 1023.1
20260503184028 79 79 0.0 5.0 0.00 0.00 0.00 40 1023.1
20260503183527 79 54 0.0 7.0 0.00 0.00 0.00 41 1023.2
20260503183027 79 160 1.0 10.0 0.00 0.00 0.00 39 1023.0
20260503182526 79 144 1.0 10.0 0.00 0.00 0.00 40 1023.2
20260503182026 79 189 0.0 4.0 0.00 0.00 0.00 41 1023.2
20260503181526 78 150 0.0 5.0 0.00 0.00 0.00 40 1023.4
20260503181025 79 114 0.0 5.0 0.00 0.00 0.00 39 1023.4
20260503180529 79 39 0.0 5.0 0.00 0.00 0.00 40 1023.5
20260503180024 79 98 0.0 7.0 0.00 0.00 0.00 41 1023.4
20260503175524 79 144 0.0 5.0 0.00 0.00 0.00 40 1023.6
20260503175024 79 165 0.0 0.0 0.00 0.00 0.00 39 1023.6
20260503174522 79 183 0.0 0.0 0.00 0.00 0.00 42 1023.8
20260503174022 78 144 0.0 0.0 0.00 0.00 0.00 42 1024.1
20260503173519 78 180 0.0 5.0 0.00 0.00 0.00 44 1024.3
20260503173019 77 71 0.0 5.0 0.00 0.00 0.00 42 1024.4
20260503172518 77 196 0.0 4.0 0.00 0.00 0.00 43 1024.5
20260503172018 77 202 0.0 6.0 0.00 0.00 0.00 41 1024.5
20260503171519 77 194 2.0 6.0 0.00 0.00 0.00 42 1024.7
20260503171019 77 146 1.0 4.0 0.00 0.00 0.00 40 1024.7
20260503170519 77 59 0.0 5.0 0.00 0.00 0.00 41 1024.7
20260503151001 74 170 0.0 3.0 0.00 0.00 0.00 54 1024.6
20260503150600 74 177 0.0 3.0 0.00 0.00 0.00 54 1024.6
20260503131034 61 126 0.0 0.0 0.00 0.00 0.00 90 1024.1
20260503130529 60 126 0.0 0.0 0.00 0.00 0.00 91 1024.1
20260503110517 54 127 0.0 0.0 0.00 0.00 0.00 91 1023.3
20260503090507 56 127 0.0 0.0 0.00 0.00 0.00 90 1022.5
20260503081501 57 127 0.0 0.0 0.00 0.00 0.00 87 1022.6
20260503081100 57 127 0.0 0.0 0.00 0.00 0.00 87 1022.7
20260503080603 57 127 0.0 0.0 0.00 0.00 0.00 87 1022.8
20260503072556 57 127 0.0 0.0 0.00 0.00 0.00 86 1022.7
20260503072056 58 127 0.0 0.0 0.00 0.00 0.00 86 1022.7
20260503071557 58 127 0.0 0.0 0.00 0.00 0.00 85 1022.7
20260503071054 58 127 0.0 0.0 0.00 0.00 0.00 85 1022.8
20260503070554 58 127 0.0 0.0 0.00 0.00 0.00 85 1022.8